Location: Brookfield Center
(41.2406°N, 80.5579°W)
Time: 01:25:33
(UTC+00:00)

Cosmos 2237 Rocket - Pass Details

Date: 18 January 2020
Orbit: 836 x 848 km, 71.0° (Epoch: 28 February)

Event Time Altitude Azimuth Distance (km) Brightness Sun altitude
Rises 01:31:40 0° 325° (NW) 3,394 5.8 -35.6°
Reaches altitude 10° 01:34:25 10° 314° (NW) 2,455 5.1 -36.2°
Maximum altitude 01:39:07 28° 257° (WSW) 1,517 3.9 -37.0°
Enters shadow 01:40:07 27° 239° (WSW) 1,569 3.9 -37.2°
